Regional Weather Roundup
Issued by NWS

Home | Current Version | Previous Version | Graphics & Text | Print | Product List | Glossary On
Versions: 1 2 3 4 5 6 7 8 9 10 11 12 13 14 15 16 17 18 19 20 21 22 23 24 25 26 27 28 29 30 31 32 33 34 35 36 37 38 39 40 41 42 43 44 45 46 47 48 49 50
000
ASUS43 KMPX 170701
RWRMN
WEATHER ROUNDUP FOR MINNESOTA
NATIONAL WEATHER SERVICE TWIN CITIES/CHANHASSEN MN
100 AM CST SUN DEC 17 2017


NOTE: "FAIR" INDICATES FEW OR NO CLOUDS BELOW 12,000 FEET WITH NO
SIGNIFICANT WEATHER AND/OR OBSTRUCTIONS TO VISIBILITY. N/A MEANS
CURRENT SKY AND/OR WEATHER CONDITIONS ARE NOT AVAILABLE.

MNZ060>063-068>070-170800-
   Twin Cities Metro

CITY           SKY/WX    TMP DP  RH WIND       PRES   REMARKS
TWIN CITIES    CLOUDY    21  18  88 NE3       30.09S
ST PAUL        CLOUDY    21  16  81 E5        30.11S WCI  15
CRYSTAL        CLOUDY    21  15  78 NE3       30.08S
BLAINE         CLOUDY    21  18  86 CALM      30.08F
LAKEVILLE      PTCLDY    18  18 100 CALM      30.08F
EDEN PRAIRIE   CLOUDY    23  17  78 NE5       30.08S WCI  17
SOUTH ST PAUL  CLOUDY    22  17  81 N3        30.10S
LAKE ELMO      MOCLDY    21  18  86 CALM      30.11S
$$
MNZ001>005-007-008-013>017-022>024-027-028-170800-
   Northwest Minnesota

CITY           SKY/WX    TMP DP  RH WIND       PRES   REMARKS
BEMIDJI        CLOUDY    24  22  93 SW7       30.05F WCI  16
HALLOCK        CLEAR     12  10  92 S7        30.00F WCI   2
ROSEAU         CLOUDY    19  16  86 S8        30.00F WCI   9
WARROAD        CLEAR     18  12  79 SW3       30.01F
THIEF RVR FALL CLOUDY    19  18  93 S9        30.05F WCI   9
CROOKSTON      CLOUDY    16  16 100 SW6       30.07S WCI   7
FOSSTON        CLOUDY    23  21  93 S12       30.06F FOG     WCI  12
DETROIT LAKES  CLOUDY    27  27 100 S5        30.07S FOG     WCI  21
MOORHEAD       CLEAR     19  18  93 CALM      30.09F
PARK RAPIDS    CLOUDY    25  23  92 S3        30.06S
MAHNOMEN       CLOUDY    25  24  96 S6        30.07F WCI  18
$$
MNZ006-009>011-018-025>026-170800-
   North Central Minnesota

CITY           SKY/WX    TMP DP  RH WIND       PRES   REMARKS
BAUDETTE       CLOUDY    22  20  92 S8        30.02S WCI  12
FLAG ISLAND    CLOUDY    19  18  93 S7        30.00S FOG     WCI  10
INTL FALLS     CLOUDY    21  18  88 S3        30.04S
WASKISH        CLOUDY    23  21  93 SW5       30.05F WCI  17
BIG FORK       CLOUDY    21  19  93 S5        30.06F WCI  15
LONGVILLE      CLOUDY    23  21  93 CALM      30.08S
GRAND RAPIDS   CLOUDY    20  18  92 S7        30.09F WCI  11
CRANE LAKE     CLOUDY    19  18  93 S3        30.09S
ORR            CLOUDY    19  16  86 CALM      30.04F
COOK           CLOUDY    19  18  93 S5        30.07S WCI  13
WALKER         CLOUDY    23  22  94 SW3       30.07S
$$
MNZ012-019>021-037-170800-
   Northeast Minnesota

CITY           SKY/WX    TMP DP  RH WIND       PRES   REMARKS
DULUTH         CLOUDY    19  15  84 W3        30.08F
ELY            CLOUDY    21  18  86 SW6       30.07S WCI  14
HIBBING        CLOUDY    18  16  92 SW3       30.08S
EVELETH        CLOUDY    19  15  84 SW7       30.09S WCI   9
DULUTH HARBOR  CLOUDY    23  18  80 CALM      30.15S
TWO HARBORS    CLOUDY    25  18  74 SW3       30.09S
SILVER BAY     CLOUDY    23  18  80 CALM      30.09S
GRAND MARAIS     N/A     30  22  72 S10       30.13F WCI  21
G MARAIS ARPRT CLOUDY    19  16  86 S3        30.06S
$$
MNZ029>031-032-039>041-046>048-054>057-064-170800-
   West Central Minnesota

CITY           SKY/WX    TMP DP  RH WIND       PRES   REMARKS
FERGUS FALLS   FOG       19  19 100 CALM      30.12S VSB 1/4
WHEATON        CLOUDY    27  25  93 CALM      30.10F FOG
MORRIS         CLOUDY    25  25 100 CALM      30.07F FOG
ALEXANDRIA     CLOUDY    27  25  92 CALM      30.07F FOG
ELBOW LAKE     FAIR      20  20  98 CALM      30.08F FOG
WADENA         CLOUDY    25  25 100 CALM      30.07S FOG
GLENWOOD       CLOUDY    27  27 100 N3        30.07F FOG
APPLETON       CLOUDY    28  27  93 CALM      30.08F FOG
BENSON         CLOUDY    28  25  86 CALM      30.10S
ORTONVILLE     PTCLDY    25  21  86 CALM      30.07F FOG
MADISON        CLOUDY    28  28 100 CALM      30.07F FOG
WILLMAR        FAIR      25  23  93 N3        30.09S FOG
$$
MNZ033>034-036-042>043-049>051-058-059-170800-
   Central Minnesota

CITY           SKY/WX    TMP DP  RH WIND       PRES   REMARKS
ST CLOUD       CLOUDY    20  16  84 N5        30.09F WCI  13
SAUK CENTRE    FOG       24  23  98 CALM      30.08F VSB 1/2
PAYNESVILLE    CLOUDY    23  23 100 CALM      30.09S FOG
AITKIN         CLOUDY    21  18  86 CALM      30.09R
PINE RIVER     CLOUDY    21  19  93 CALM      30.11F
BRAINERD       CLOUDY    24  20  84 SW5       30.09F WCI  18
STAPLES        CLOUDY    25  25 100 CALM      30.08S FOG
LONG PRAIRIE   SNOW      25  25 100 CALM      30.07F VSB 1/2
LITTLE FALLS   CLOUDY    23  19  86 CALM      30.09F
LITCHFIELD     CLOUDY    25  25 100 N3        30.08S FOG
BUFFALO        CLOUDY    20  17  88 CALM      30.09F
MAPLE LAKE     CLOUDY    21  19  93 CALM      30.09S
HUTCHINSON     CLEAR     23  22  93 CALM      30.08F
$$
MNZ037-044-045-052-053-170800-
   East Central Minnesota

CITY           SKY/WX    TMP DP  RH WIND       PRES   REMARKS
PRINCETON      CLOUDY    19  16  86 CALM      30.09F
MORA           CLOUDY    21  18  86 CALM      30.11F
CAMBRIDGE      CLOUDY    21  14  73 CALM      30.10F
RUSH CITY      CLOUDY    19  15  88 CALM      30.11F
MOOSE LAKE     CLOUDY    23  18  80 CALM      30.10S
HINCKLEY       CLOUDY    23  19  86 CALM      30.10F
CLOQUET        CLOUDY    19  14  79 CALM      30.09F
MCGREGOR       CLOUDY    23  21  93 S3        30.10S
$$
MNZ071>073-080-081-089-090-097-098-170800-
   Southwest Minnesota

CITY           SKY/WX    TMP DP  RH WIND       PRES   REMARKS
MONTEVIDEO     CLOUDY    27  25  93 CALM      30.08F FOG
GRANITE FALLS  CLOUDY    23  21  94 CALM      30.10S FOG
CANBY          CLOUDY    27  26  96 CALM      30.08F FOG
MARSHALL       CLOUDY    21  20  96 N5        30.07F FOG     WCI  15
REDWOOD FALLS  CLOUDY    27  25  92 N3        30.07F
OLIVIA         CLOUDY    23  21  93 CALM      30.08S FOG
PIPESTONE      CLOUDY    25  25 100 CALM      30.04S FOG
WINDOM           N/A     27  16  63 NE6       30.06R HAZE    WCI  20
WORTHINGTON    SNOW      24  23  96 NE12      30.06R VSB 1/2 WCI  13
JACKSON        FOG       27  27 100 NE6       30.05R VSB 1/2 WCI  20
SLAYTON        CLOUDY    25  24  98 NE5       30.05S FOG     WCI  19
$$
MNZ065>067-074>077-082>085-091>093-170800-
   South Central Minnesota

CITY           SKY/WX    TMP DP  RH WIND       PRES   REMARKS
MANKATO        CLOUDY    26  24  92 NE5       30.07R FOG     WCI  20
NEW ULM        CLOUDY    27  23  86 CALM      30.08R FOG
ST JAMES       CLOUDY    27  27 100 CALM      30.08S FOG
FAIRMONT       CLOUDY    27  25  92 NE7       30.06S FOG     WCI  19
GLENCOE        CLEAR     25  25 100 CALM      30.08F
FARIBAULT      CLOUDY    21  19  93 CALM      30.07S
OWATONNA       CLOUDY    21  19  93 N3        30.04F
WASECA         CLOUDY    23  21  93 NE3       30.08S
ALBERT LEA     CLOUDY    23  19  86 CALM      30.05S
$$
MNZ078>079-086>088-094>096-170800-
   Southeast Minnesota

CITY           SKY/WX    TMP DP  RH WIND       PRES   REMARKS
ROCHESTER      CLOUDY    22  22 100 E8        30.05F FOG     WCI  12
RED WING       CLOUDY    21  18  86 E5        30.10R WCI  15
STANTON        PTCLDY    22  18  86 NE3       30.06F
DODGE CENTER   CLOUDY    21  19  93 NE3       30.04F
WINONA         CLOUDY    30  28  93 SE10      30.11R WCI  21
AUSTIN         CLOUDY    21  19  93 CALM      30.05R
PRESTON        FOG       25  23  95 E7        30.06S VSB 1/2 WCI  17
$$
ABBREVIATIONS USED IN REMARKS
   TC - TEMPERATURES IN CELSIUS
  WCI - WIND CHILL INDEX
   HX - HEAT INDEX
  VSB - VISIBILITY
$$




USA.gov is the U.S. government's official web portal to all federal, state and local government web resources and services.